Regional Weather Roundup
Issued by NWS

Home | Current Version | Previous Version | Text Only | Print | Product List | Glossary On
Versions: 1 2 3 4 5 6 7 8 9 10 11 12 13 14 15 16 17 18 19 20 21 22 23 24 25 26 27 28 29 30 31 32 33 34 35 36 37 38 39 40 41 42 43 44 45 46 47 48 49 50
000
ASUS46 KLOX 311213
RWRCA

SOUTHERN CALIFORNIA WEATHER ROUNDUP
NATIONAL WEATHER SERVICE OXNARD CALIFORNIA
500 AM PDT TUE MAY 31 2016

NOTE: "FAIR" INDICATES FEW OR NO CLOUDS BELOW 12,000 FEET WITH NO
SIGNIFICANT WEATHER AND/OR OBSTRUCTIONS TO VISIBILITY.

  -  STATIONS PRECEEDED BY AN ASTERISK (*) ARE NOT NWS OR FAA
     STATIONS AND ARE NOT SUBJECT TO NWS AND FAA QUALITY CONTROL.

CAZ041-042-087-311300-
LA AND ORANGE COUNTY COASTAL AREAS


CITY           SKY/WX    TMP DP  RH WIND       PRES   REMARKS
L.A. DOWNTOWN  CLOUDY    61  56  83 CALM      29.87S
L.A. AIRPORT   CLOUDY    60  55  83 CALM      29.87S
LONG BEACH     CLOUDY    61  57  87 CALM      29.87S

CITY           SKY/WX    TMP DP  RH WIND       PRES   REMARKS
AVALON           N/A     59 N/A N/A S2          N/A
FULLERTON      CLOUDY    61  55  81 CALM      29.86F
*GETTY CENTER    N/A     52  52 100 SW2         N/A
HAWTHORNE      CLOUDY    61  56  83 CALM      29.88S
*LOS ALAMITOS  CLOUDY    61  56  84 CALM      29.87S
*REDONDO BEACH   N/A     60  55  84 CALM      29.87S
SANTA ANA      CLOUDY    61  55  81 SE5       29.87S
STA MONICA APT CLOUDY   N/A N/A N/A CALM      29.88S
*STA MON PIER    N/A     58  56  92 CALM      29.81S
*UCLA            N/A     57  54  88 S1        29.85S

$$

CAZ547-548-048-311300-
LA COUNTY VALLEYS AND INLAND EMPIRE


CITY           SKY/WX    TMP DP  RH WIND       PRES   REMARKS
BURBANK        CLOUDY    57  55  93 VRB5      29.86S
VAN NUYS       CLOUDY    57  54  89 SE6       29.87R

CITY           SKY/WX    TMP DP  RH WIND       PRES   REMARKS
CORONA AIRPORT SUNNY     51  49  92 N3        29.88F FOG
*CHATSWORTH      N/A     58  53  85 CALM      29.87S
CHINO          CLEAR     57  53  86 CALM      29.89S FOG
*CLAREMONT       N/A     53  51  93 CALM        N/A
MARCH AFB      CLEAR     54  54 100 CALM      29.87F
*NORTHRIDGE      N/A     57  52  82 CALM        N/A
ONTARIO        PTCLDY    57  53  86 W3        29.87S FOG
*PASADENA        N/A     55  55 100 E2          N/A
RIVERSIDE      CLEAR     58  54  86 CALM      29.87F
SAN BERNARDINO NOT AVBL
*SAUGUS          N/A     57  53  87 E5          N/A
*WHITEMAN AP   NOT AVBL
*WHITTIER HILL   N/A     54  54  99 CALM        N/A
*WOODLAND HILL   N/A     55  52  88 E2          N/A

$$

CAZ054-055-311300-
LA AND SAN BERNARDINO COUNTY MOUNTAINS


CITY           SKY/WX    TMP DP  RH WIND       PRES   REMARKS
*ACTON           N/A     56  39  53 NE3         N/A
*BIG BEAR AIRP SUNNY     41  30  65 CALM      30.13F
*BIG PINES       N/A     53  33  46 CALM        N/A
*CHILAO          N/A     65  33  30 NE26        N/A
SANDBERG       LGT RAIN  67  41  38 N26G36    30.02F
*WARM SPRINGS    N/A     68  50  52 CALM        N/A

$$

CAZ028-029-059-060-099-311300-
ANTELOPE VALLEY AND SURROUNDING AREAS


CITY           SKY/WX    TMP DP  RH WIND       PRES   REMARKS
LANCASTER      CLEAR     73  39  29 W12       29.87R
PALMDALE       CLEAR     72  38  29 W9        29.90R

CITY           SKY/WX    TMP DP  RH WIND       PRES   REMARKS
29 PALMS       PTCLDY    76  32  20 N7        29.88S
BARSTOW/DAGGET CLEAR     75  36  24 NW13      29.83R
BISHOP         CLEAR     50  31  48 N5        30.04R
CHINA LAKE     CLEAR     71  27  19 W8        29.83S
EDWARDS AFB    CLEAR     72  39  30 SW13      29.84S
MOJAVE         CLEAR     75  37  25 W28G35    29.87S
NEEDLES        CLEAR     76  27  16 NW6       29.73R
VICTORVILLE    CLEAR     70  36  28 W6        29.90S

$$

CAZ039-040-311300-
VENTURA AND SANTA BARBARA COUNTY COAST


CITY           SKY/WX    TMP DP  RH WIND       PRES   REMARKS
CAMARILLO      CLOUDY    59  54  83 CALM      29.86S
NWS OXNARD       N/A     58  54  85 CALM      29.86S
OXNARD AIRPORT CLOUDY    58  55  90 S3        29.87S
*POINT MUGU    CLOUDY    58  55  90 SW5       29.87F
SBA APT/GOLETA CLOUDY    57  55  93 E6        29.86S
*SANTA BARBARA   N/A     58  54  85 CALM      29.94S
*VENTURA         N/A     57  54  90 NE1       29.85S

$$

CAZ044-045-311300-
VENTURA COUNTY VALLEYS


CITY           SKY/WX    TMP DP  RH WIND       PRES   REMARKS
*SIMI VALLEY     N/A     53  51  91 CALM      29.83R
*WESTLAKE VILL   N/A     50  47  91 CALM      29.85S
*OJAI            N/A     56  52  85 CALM      29.80S
*FILLMORE        N/A     51  47  86 CALM      29.77S

$$

CAZ053-311300-
VENTURA COUNTY MOUNTAINS


CITY           SKY/WX    TMP DP  RH WIND       PRES   REMARKS
*ROSE VALLEY     N/A     54  39  58 MISG        N/A

$$

CAZ034-035-036-311300-
CENTRAL COAST AND SANTA YNEZ VALLEY


CITY           SKY/WX    TMP DP  RH WIND       PRES   REMARKS
SAN LUIS OBISP CLOUDY    54  52  93 NW3       29.87S FOG
SANTA MARIA    FOG       52  52 100 NW3       29.88S VSB 3/4

CITY           SKY/WX    TMP DP  RH WIND       PRES   REMARKS
*CAL POLY SLO    N/A     52  52 100 CALM        N/A
*PISMO BEACH     N/A     54  52  93 CALM      29.88S
*SANTA YNEZ    CLOUDY    50  50 100 CALM      29.87F FOG

$$

CAZ037-038-051-311300-
SAN LUIS OBISPO COUNTY INTERIOR AND CUYAMA VALLEY


CITY           SKY/WX    TMP DP  RH WIND       PRES   REMARKS
*CUYAMA          N/A     59  43  56 SE2       29.82S
PASO ROBLES    CLEAR     53  43  68 CALM      29.89F

$$

CAZ032-033-061-311300-
SOUTHERN DESERTS


CITY           SKY/WX    TMP DP  RH WIND       PRES   REMARKS
BLYTHE         CLEAR     72  40  31 NW7       29.71R
IMPERIAL       CLEAR     72  42  34 S3        29.68S
PALM SPRINGS   CLEAR     73  54  51 S3        29.73S
THERMAL        CLEAR     78  52  40 NW13      29.67R

$$

ELSEWHERE ACROSS THE WESTERN UNITED STATES AND MEXICO


CITY           SKY/WX    TMP DP  RH WIND       PRES   REMARKS
DENVER, CO     CLOUDY    47  42  83 VRB3      30.18S
GRAND CANYON,  CLEAR     34  24  67 CALM      30.10S
HONOLULU, HI   PTCLDY    73  64  73 N5        29.99F
KAHULUI, MAUI  CLOUDY    73  66  78 CALM      30.00
LAKE TAHOE, CA CLEAR     41  38  89 CALM      30.20S
LAS VEGAS, NV  PTCLDY    78  34  20 CALM      29.81R
MAMMOTH LAKES, FAIR      44  32  62 NW3       30.24S
MEXICO CITY, M PTCLDY    59  50  72 SE5       30.28F
PHOENIX, AZ    PTCLDY    70  27  20 E9        29.77R
PORTLAND, OR   PTCLDY    55  44  66 CALM      30.08F
RENO, NV       PTCLDY    59  41  51 SW3       30.12S
SALT LAKE CITY PTCLDY    53  41  63 SE5       30.06R
SAN DIEGO, CA  CLOUDY    64  56  75 CALM      29.89S
SAN FRANCISCO, PTCLDY    53  50  89 W8        29.88S
SAN JOSE, CA   CLOUDY    59  55  87 W3        29.88S
SEATTLE, WA    PTCLDY    53  48  83 N3        30.15S
TIJUANA, MEX   CLOUDY    61  54  77 CALM      29.90S

$$

STATION/POSITION TIME  TEMP    WIND        PRES    VSBY  WAVE
                       AIR SEA DIR/SP/G                  HT/PER
                 (UTC) (F)     (DEG/KT/KT) (MB)    (MI)  (FT/S)
POINT ARGUELLO B NOT AVBL
WEST SANTA BARBA 1150   53 55  320/ 16/ 19 1010.7F         5/16
POINT CONCEPTION NOT AVBL
EAST SANTA BARBA 1100   57 59   40/ 10/ 12 1011.3F
SANTA MONICA BAY 1150   58 63   CALM  /  2 1011.7F         4/16


USA.gov is the U.S. government's official web portal to all federal, state and local government web resources and services.